2023/02/02 00:00:00,138.6, 0.9
2023/02/02 00:10:00,138.7, 1.1
2023/02/02 00:20:00,138.7, 0.5
2023/02/02 00:30:00,138.8, 1.0
2023/02/02 00:40:00,139.0, 1.0
2023/02/02 00:50:00,138.8, 1.0
2023/02/02 01:00:00,138.5, 0.7
2023/02/02 01:10:00,138.6, 0.9
2023/02/02 01:20:00,138.5, 0.7
2023/02/02 01:30:00,138.5, 0.5
2023/02/02 01:40:00,138.5, 0.7
2023/02/02 01:50:00,138.6, 0.9
2023/02/02 02:00:00,138.5, 0.6
2023/02/02 02:10:00,138.3, 0.5
2023/02/02 02:20:00,138.2, 0.6
2023/02/02 02:30:00,138.2, 0.5
2023/02/02 02:40:00,138.2, 0.7
2023/02/02 02:50:00,137.9, 1.0
2023/02/02 03:00:00,138.1, 0.6
2023/02/02 03:10:00,138.1, 0.8
2023/02/02 03:20:00,138.0, 0.5
2023/02/02 03:30:00,137.9, 0.5
2023/02/02 03:40:00,137.9, 0.6
2023/02/02 03:50:00,138.0, 0.4
2023/02/02 04:00:00,138.1, 0.3
2023/02/02 04:10:00,138.1, 0.3
2023/02/02 04:20:00,138.1, 0.2
2023/02/02 04:30:00,138.1, 0.5
2023/02/02 04:40:00,138.0, 0.2
2023/02/02 04:50:00,137.9, 0.1
2023/02/02 05:00:00,137.9, 0.5
2023/02/02 05:10:00,137.8, 0.1
2023/02/02 05:20:00,137.7, 0.6
2023/02/02 05:30:00,137.7,-0.2
2023/02/02 05:40:00,137.8,-0.3
2023/02/02 05:50:00,137.7,-0.2
2023/02/02 06:00:00,137.6,-0.1
2023/02/02 06:10:00,137.5,-0.3
2023/02/02 06:20:00,137.5,-0.2
2023/02/02 06:30:00,137.3, 0.0
2023/02/02 06:40:00,137.1, 0.1
2023/02/02 06:50:00,137.6,-0.2
2023/02/02 07:00:00,137.6, 0.0
2023/02/02 07:10:00,137.4,-0.2
2023/02/02 07:20:00,137.3,-0.1
2023/02/02 07:30:00,137.2, 0.2
2023/02/02 07:40:00,137.2, 0.2
2023/02/02 07:50:00,137.1,-0.1
2023/02/02 08:00:00,137.0, 0.2
2023/02/02 08:10:00,137.0, 0.1
2023/02/02 08:20:00,136.8, 0.2
2023/02/02 08:30:00,136.7, 0.6
2023/02/02 08:40:00,136.6, 0.8
2023/02/02 08:50:00,136.5, 0.5
2023/02/02 09:00:00,136.3, 0.6
2023/02/02 09:10:00,136.2, 0.5
2023/02/02 09:20:00,136.0, 0.6
2023/02/02 09:30:00,135.9, 0.8
2023/02/02 09:40:00,135.8, 1.4
2023/02/02 09:50:00,135.6, 2.1
2023/02/02 10:00:00,135.5, 3.0
2023/02/02 10:10:00,135.6, 3.4
2023/02/02 10:20:00,135.5, 4.2
2023/02/02 10:30:00,135.3, 4.5
2023/02/02 10:40:00,135.2, 4.0
2023/02/02 10:50:00,135.0, 4.8
2023/02/02 11:00:00,134.6, 4.2
2023/02/02 11:10:00,134.5, 3.8
2023/02/02 11:20:00,134.4, 2.8
2023/02/02 11:30:00,134.0, 4.7
2023/02/02 11:40:00,133.9, 4.2
2023/02/02 11:50:00,133.7, 5.4
2023/02/02 12:00:00,133.4, 6.5
2023/02/02 12:10:00,133.1, 7.0
2023/02/02 12:20:00,132.9, 6.4
2023/02/02 12:30:00,132.8, 5.6
2023/02/02 12:40:00,132.7, 6.6
2023/02/02 12:50:00,132.6, 8.0
2023/02/02 13:00:00,132.4, 9.3
2023/02/02 13:10:00,132.4, 6.9
2023/02/02 13:20:00,132.4, 4.4
2023/02/02 13:30:00,132.3, 3.2
2023/02/02 13:40:00,132.3, 2.4
2023/02/02 13:50:00,132.0, 2.6
2023/02/02 14:00:00,131.8, 5.6
2023/02/02 14:10:00,131.8, 7.3
2023/02/02 14:20:00,131.7, 8.3
2023/02/02 14:30:00,131.7, 7.3
2023/02/02 14:40:00,131.7, 6.1
2023/02/02 14:50:00,131.6, 4.9
2023/02/02 15:00:00,131.6, 3.7
2023/02/02 15:10:00,131.5, 3.6
2023/02/02 15:20:00,131.4, 3.5
2023/02/02 15:30:00,131.3, 3.2
2023/02/02 15:40:00,131.2, 3.1
2023/02/02 15:50:00,131.1, 2.8
2023/02/02 16:00:00,130.9, 2.0
2023/02/02 16:10:00,130.7, 1.9
2023/02/02 16:20:00,130.5, 1.9
2023/02/02 16:30:00,130.4, 2.0
2023/02/02 16:40:00,130.3, 2.1
2023/02/02 16:50:00,130.3, 1.9
2023/02/02 17:00:00,130.3, 1.7
2023/02/02 17:10:00,130.1, 1.5
2023/02/02 17:20:00,130.0, 1.1
2023/02/02 17:30:00,129.9, 0.8
2023/02/02 17:40:00,129.9, 0.4
2023/02/02 17:50:00,129.9, 0.2
2023/02/02 18:00:00,130.0, 0.5
2023/02/02 18:10:00,130.0, 0.0
2023/02/02 18:20:00,130.0,-0.1
2023/02/02 18:30:00,129.9, 0.3
2023/02/02 18:40:00,129.8, 0.0
2023/02/02 18:50:00,129.8, 0.3
2023/02/02 19:00:00,129.7, 0.1
2023/02/02 19:10:00,129.7, 0.0
2023/02/02 19:20:00,129.7,-0.1
2023/02/02 19:30:00,129.6,-0.1
2023/02/02 19:40:00,129.6, 0.0
2023/02/02 19:50:00,129.5,-0.3
2023/02/02 20:00:00,129.4,-0.3
2023/02/02 20:10:00,129.3,-0.2
2023/02/02 20:20:00,129.2,-0.2
2023/02/02 20:30:00,129.2,-0.2
2023/02/02 20:40:00,129.1,-0.2
2023/02/02 20:50:00,129.0,-0.2
2023/02/02 21:00:00,128.9,-0.6
2023/02/02 21:10:00,128.8,-0.1
2023/02/02 21:20:00,128.7,-0.1
2023/02/02 21:30:00,128.6,-0.1
2023/02/02 21:40:00,128.5, 0.0
2023/02/02 21:50:00,128.4,-0.1
2023/02/02 22:00:00,128.3, 0.0
2023/02/02 22:10:00,128.2,-0.1
2023/02/02 22:20:00,128.2, 0.0
2023/02/02 22:30:00,128.1,-0.2
2023/02/02 22:40:00,128.3, 0.1
2023/02/02 22:50:00,128.4,-0.1
2023/02/02 23:00:00,128.5,-0.1
2023/02/02 23:10:00,128.4, 0.1
2023/02/02 23:20:00,128.2,-0.2
2023/02/02 23:30:00,128.1,-0.1
2023/02/02 23:40:00,128.0, 0.2
2023/02/02 23:50:00,127.9,-0.1
